Location: Asheville, NC
(35.6000°N, 82.5500°W)
Time: 00:20:18
(UTC-05:00)

Tiangong 2 - Pass Details

Date: 15 October 2017
Orbit: 386 x 390 km, 42.8° (Epoch: 12 December)

Event Time Altitude Azimuth Distance (km) Brightness Sun altitude
Exits shadow 05:38:46 17° 30° (NNE) 1,060 3.7 -24.7°
Drops below altitude 10° 05:40:04 10° 50° (NE) 1,418 4.7 -24.5°
Sets 05:42:28 0° 67° (ENE) 2,275 6.2 -24.0°
